Wind_Speed
3 4 4 3 2 3 1 3 6 7 9 9 8 7 8 8 7 9 9 10 10 10 10 9 9 8 8 8 9 9 9 8 8 8 8 7 7 7 7 7 7 7 8 8 8 8 8 8 9
4 4 5 2 1 1 2 5 8 8 9 10 9 8 8 9 8 9 11 10 10 10 10 10 10 10 10 10 10 10 10 9 9 9 8 8 8 8 8 8 8 8 9 9 9 9 9 9 9
5 5 5 2 1 3 4 7 9 10 10 10 9 9 9 10 9 9 10 10 10 9 10 10 10 10 10 11 11 11 11 11 10 10 10 10 10 9 9 9 9 9 10 11 11 10 10 9 10
7 7 5 2 2 4 7 10 11 11 10 10 11 10 10 10 10 10 11 11 10 9 9 10 10 10 10 10 11 11 11 11 11 10 11 10 10 11 10 10 10 10 10 11 12 12 11 11 11
8 7 4 3 4 6 11 13 11 11 11 10 11 11 11 10 11 11 12 11 10 9 10 10 11 11 10 11 11 11 11 11 11 11 11 11 10 11 11 11 11 11 12 12 12 12 12 12 12
9 7 3 4 7 8 13 14 10 12 12 11 11 12 11 11 10 11 12 10 9 9 10 10 11 11 11 12 12 11 11 11 11 12 12 12 11 11 12 12 12 12 13 13 13 13 13 13 13
9 7 5 6 9 11 14 13 12 12 11 12 12 12 10 10 11 12 12 11 10 10 11 12 12 12 13 13 12 11 11 11 11 11 12 12 13 13 12 13 13 14 14 13 14 13 14 14 14
10 7 6 8 9 13 14 12 12 13 12 13 13 12 11 11 11 12 12 11 11 11 12 13 13 13 13 14 13 12 11 11 11 11 12 12 12 12 13 14 14 14 14 14 14 15 15 15 15
10 8 6 7 10 13 14 11 11 12 12 12 13 14 13 13 12 11 11 11 11 12 12 13 14 14 14 14 13 13 13 13 12 12 12 12 13 13 13 14 14 14 15 15 15 15 16 17 17
10 9 6 9 13 15 15 13 11 12 11 12 14 14 14 14 13 12 11 12 12 12 13 13 13 14 15 14 14 14 13 14 13 13 13 12 13 14 14 14 15 15 16 16 16 17 16 17 18
10 9 9 12 15 14 14 12 12 13 13 13 13 14 14 14 13 13 12 12 12 13 14 14 14 15 15 14 14 14 13 13 14 13 13 13 14 14 15 15 16 16 17 17 17 18 18 18 18
13 12 12 14 15 13 13 13 13 13 13 14 15 14 14 14 13 13 14 13 13 13 14 14 15 16 15 14 14 15 14 13 13 13 13 14 15 15 16 16 16 17 17 18 18 19 19 19 19
13 14 13 15 14 12 12 13 13 13 14 14 15 15 14 13 13 14 14 14 14 14 13 14 15 15 16 16 16 15 13 13 13 13 14 14 15 16 16 16 17 18 18 19 19 19 19 20 20
11 12 13 13 14 13 12 12 13 14 15 15 16 16 15 13 13 14 14 14 14 14 14 14 15 15 16 17 16 13 13 13 13 14 15 15 16 16 16 17 18 18 18 19 19 20 21 21 21
11 12 12 12 13 12 11 12 13 13 15 16 17 17 15 14 14 13 13 14 15 15 15 15 16 16 17 16 15 14 14 14 15 15 15 16 17 17 17 17 18 18 19 19 19 20 21 21 21
10 11 11 11 12 13 13 12 12 13 15 16 16 16 15 15 14 13 14 14 14 15 15 15 16 16 17 16 16 15 16 15 15 15 16 16 17 17 17 17 17 17 18 19 20 20 21 20 21
8 10 10 10 12 13 13 13 13 13 14 15 16 15 14 15 14 14 14 14 14 14 15 15 16 17 18 17 16 15 15 15 15 15 16 17 17 17 18 18 18 18 18 19 20 20 20 21 22
8 9 10 10 12 12 12 13 13 13 14 14 14 14 13 13 14 14 14 14 14 15 15 16 17 17 17 17 16 15 15 15 15 16 17 18 19 18 18 18 18 18 19 19 19 20 20 21 22
11 10 9 10 12 13 13 13 12 13 14 13 13 14 14 15 14 14 15 14 15 15 15 15 16 16 17 16 15 15 15 15 16 17 17 18 18 18 17 17 18 18 19 19 19 20 21 21 22
10 10 10 11 11 13 13 13 11 12 13 13 13 14 14 15 15 14 14 15 15 15 15 14 15 16 16 16 16 16 16 16 17 18 19 19 19 18 19 19 18 19 19 19 19 20 20 20 20
13 11 11 12 11 11 12 12 11 12 12 13 13 14 15 15 13 13 14 14 14 14 15 15 15 16 16 16 17 17 16 17 18 19 19 19 19 19 18 19 19 18 19 19 19 18 18 18 19
13 12 12 11 11 11 11 12 13 12 14 14 15 15 14 14 14 14 14 14 14 15 15 15 16 17 17 17 17 17 18 18 19 20 20 20 20 19 19 19 19 19 19 18 18 17 17 17 18
13 12 12 12 12 12 12 13 13 13 15 15 15 15 14 14 14 15 15 15 15 15 15 16 16 17 17 17 18 18 19 19 19 19 19 19 19 19 18 19 19 19 19 18 17 16 17 17 17
12 12 12 12 12 13 12 13 15 15 16 15 15 14 14 15 14 15 15 15 15 16 16 16 17 18 18 18 19 19 19 19 20 19 18 19 19 19 19 18 18 18 18 17 16 16 17 17 18
13 12 11 12 12 12 11 14 16 16 15 15 16 16 15 15 15 14 15 15 15 16 17 17 17 18 18 18 18 18 19 20 19 18 18 19 19 19 19 19 18 18 17 17 16 16 17 17 18
14 13 13 13 12 11 12 14 15 17 16 16 16 16 16 15 15 15 16 17 16 16 16 17 18 18 18 18 18 18 19 20 19 18 18 19 19 20 19 19 18 17 17 17 17 17 17 18 18
14 14 14 13 13 13 15 16 17 17 17 17 17 17 16 16 16 16 17 17 17 17 17 17 18 18 18 18 18 18 19 19 19 19 19 20 20 20 19 19 18 18 18 17 17 17 18 18 19
15 15 15 14 14 14 15 15 16 17 17 16 17 17 16 16 17 17 17 17 17 17 17 17 17 18 18 18 18 19 19 20 20 20 20 20 20 20 19 19 18 18 18 18 17 17 18 19 19
16 16 17 16 15 15 14 17 17 17 16 18 18 17 16 16 17 18 17 17 17 17 17 18 18 18 18 19 19 19 19 19 19 19 20 20 20 20 19 19 19 19 18 18 18 18 18 18 18
17 17 18 19 17 16 16 18 18 17 17 18 18 17 17 17 17 17 17 17 17 17 17 17 17 18 19 19 19 19 19 19 19 19 20 20 20 19 19 19 19 19 19 18 17 17 18 18 18
Wind_Direction
176 155 142 142 112 66 120 273 274 281 281 279 280 279 283 288 292 295 300 304 308 309 311 311 312 306 301 296 296 294 292 287 285 280 272 266 262 259 255 253 243 235 232 230 227 227 230 226 220
185 166 169 178 48 345 260 276 279 282 282 284 290 293 292 292 291 297 301 305 306 310 310 309 310 304 298 293 291 291 290 287 285 280 276 269 263 259 256 255 251 244 238 237 234 234 236 233 229
186 175 172 144 347 283 269 277 276 279 285 293 293 293 292 294 296 300 306 310 308 309 309 310 310 305 301 297 293 289 289 284 282 281 278 273 267 263 261 261 257 251 247 245 243 240 240 238 235
182 173 167 144 251 272 276 279 281 285 294 301 300 294 292 293 294 298 306 308 307 309 309 310 311 307 305 302 298 290 289 283 280 280 279 275 269 266 265 265 261 256 254 253 251 247 247 243 239
186 176 171 213 242 260 267 276 280 285 293 298 300 299 294 293 293 300 306 306 308 309 310 311 309 313 310 306 300 293 290 285 283 280 277 273 270 268 267 266 262 260 258 257 256 251 248 247 247
190 179 208 235 244 257 270 276 284 288 288 296 297 301 301 297 299 303 306 307 310 310 311 311 315 316 313 310 303 297 292 289 288 283 276 272 271 270 268 267 265 263 262 259 254 252 250 251 250
192 185 216 242 254 256 265 274 275 280 288 291 296 303 301 302 305 304 309 310 312 311 312 311 313 315 313 310 305 301 299 295 290 281 274 270 271 271 269 268 268 266 267 265 258 255 254 253 254
192 198 212 236 247 258 262 273 282 281 287 290 295 300 303 308 305 307 310 311 310 311 311 314 315 317 315 313 306 303 299 297 295 288 281 276 274 275 272 270 271 271 266 262 260 258 254 254 254
199 214 219 236 243 252 260 265 279 290 292 292 292 297 302 306 305 306 309 313 313 313 312 316 318 318 316 315 313 305 297 295 294 290 285 280 277 277 275 272 271 272 269 265 263 263 257 255 253
209 225 236 244 248 252 259 269 278 285 284 287 291 293 299 303 307 309 312 313 313 313 313 315 318 320 320 318 316 310 301 295 292 291 286 283 279 277 278 274 272 272 271 269 265 264 261 257 254
222 227 241 256 254 254 258 269 270 274 280 286 290 294 300 304 305 311 314 313 313 313 313 315 317 317 317 317 316 313 306 300 297 294 287 284 282 280 280 278 276 272 269 269 266 262 259 259 258
232 235 241 256 261 262 266 268 267 272 275 282 288 296 302 304 308 308 309 310 311 312 314 313 312 313 315 316 317 317 313 305 301 297 291 287 284 282 283 281 278 276 272 270 271 267 263 260 261
232 241 247 253 263 267 269 270 273 276 280 284 290 296 298 303 308 307 307 307 309 309 314 315 312 313 314 317 316 317 314 309 304 298 295 292 288 286 285 281 278 277 275 273 270 268 265 263 263
234 240 248 258 272 269 278 285 280 282 286 289 293 296 297 299 302 304 307 308 306 308 310 312 313 315 315 316 315 315 315 310 305 301 299 296 294 290 285 282 279 277 278 276 273 270 267 264 263
235 243 249 263 273 274 281 286 283 285 286 290 293 294 298 297 301 303 304 305 305 305 309 309 310 317 316 314 313 311 313 312 310 305 302 299 296 293 290 285 282 278 278 278 277 273 270 269 267
238 243 248 259 268 272 274 278 280 281 287 293 293 296 299 300 300 302 302 305 304 304 307 309 310 314 315 313 311 312 312 313 312 310 307 305 301 295 293 290 286 282 281 279 279 275 272 272 270
245 249 254 262 263 266 272 274 276 282 284 288 293 297 301 300 296 297 300 304 306 306 307 307 309 313 314 312 308 310 312 312 313 312 310 308 304 298 294 291 287 284 283 283 281 277 275 274 272
257 255 257 259 256 264 271 275 277 290 289 283 291 296 300 300 300 298 298 303 305 306 305 305 307 311 314 312 308 309 311 313 314 314 311 308 307 303 299 294 290 288 286 285 282 280 278 276 274
252 263 268 270 264 266 274 280 286 289 290 292 294 293 297 300 303 300 296 303 304 306 305 306 308 311 314 313 308 308 310 312 313 313 312 311 310 306 303 299 294 291 288 286 284 282 280 278 276
244 257 269 270 270 270 276 284 287 292 292 294 298 297 298 302 302 303 302 306 305 305 305 306 309 312 315 314 308 308 309 311 313 312 310 310 309 306 303 302 298 293 291 289 287 285 283 282 278
249 253 261 266 269 274 281 283 286 291 293 296 299 299 299 299 303 304 307 309 307 308 309 308 308 313 313 312 308 308 308 310 312 312 310 310 310 308 305 304 303 300 293 290 288 287 284 281 280
248 248 254 261 272 272 276 278 281 286 292 297 301 300 300 306 305 309 308 308 307 307 309 309 309 312 311 309 308 308 308 309 311 312 310 309 310 310 306 305 304 302 299 293 288 287 287 284 282
242 248 254 259 264 264 268 274 273 278 284 287 295 300 301 305 309 309 306 306 307 307 309 310 310 310 309 311 310 310 310 312 313 312 310 310 309 310 310 309 307 304 299 294 292 289 288 287 285
242 249 257 261 261 265 265 264 268 270 282 289 294 298 300 304 306 307 307 306 305 306 309 310 311 309 307 309 309 309 311 312 312 312 311 309 309 311 311 311 310 306 299 294 293 292 289 288 285
242 247 255 265 265 270 269 267 273 276 281 290 292 294 297 300 301 304 305 307 306 305 307 309 311 310 307 307 308 309 310 312 311 310 311 311 311 311 312 311 311 309 305 300 296 292 289 291 290
246 248 249 258 260 267 270 265 272 279 281 284 288 291 294 296 299 302 304 307 308 306 307 309 312 311 309 307 308 309 310 311 311 310 310 311 311 310 310 311 309 308 307 305 298 295 294 295 294
246 247 248 256 259 260 260 266 269 274 282 285 286 288 291 292 296 299 301 305 306 306 307 308 309 311 309 309 309 310 312 313 313 312 311 310 308 309 309 308 307 305 304 302 302 297 297 297 296
246 246 245 243 252 260 263 270 276 277 285 286 284 284 286 289 291 293 298 301 303 303 302 304 307 310 308 307 308 308 310 310 311 311 311 309 308 308 307 306 303 302 301 297 298 299 300 301 300
244 246 253 255 255 259 265 271 274 274 282 285 285 287 287 290 291 292 295 298 299 301 301 303 304 307 308 307 306 306 309 310 311 311 311 310 310 309 309 308 305 304 302 299 300 300 299 298 297
247 249 252 256 261 262 265 270 275 280 282 284 284 287 288 290 292 293 294 296 297 300 301 302 304 307 307 306 305 304 306 309 309 311 311 309 309 307 306 307 307 304 305 303 301 299 296 296 295
Height
5880 5881 5882 5884 5884 5884 5885 5887 5887 5884 5883 5882 5881 5881 5880 5879 5880 5880 5877 5875 5874 5873 5873 5872 5871 5870 5869 5869 5868 5867 5867 5866 5866 5866 5865 5865 5865 5865 5865 5866 5866 5866 5867 5867 5868 5868 5869 5870 5870
5880 5881 5882 5883 5882 5884 5885 5885 5885 5884 5882 5881 5880 5880 5879 5878 5877 5876 5875 5874 5873 5872 5871 5870 5869 5869 5868 5867 5866 5866 5865 5865 5864 5864 5864 5864 5864 5864 5864 5864 5865 5865 5865 5866 5866 5867 5868 5868 5869
5878 5880 5881 5882 5883 5884 5885 5884 5882 5881 5881 5879 5879 5878 5878 5877 5876 5875 5873 5872 5871 5871 5870 5869 5868 5867 5866 5865 5864 5864 5863 5863 5863 5863 5862 5862 5862 5863 5863 5863 5863 5863 5864 5865 5865 5865 5866 5867 5868
5877 5879 5881 5882 5883 5885 5885 5883 5881 5880 5879 5878 5878 5877 5876 5875 5874 5873 5872 5871 5870 5869 5868 5867 5866 5864 5864 5863 5862 5862 5861 5861 5861 5860 5860 5860 5860 5861 5861 5861 5861 5861 5862 5863 5863 5864 5864 5865 5866
5876 5878 5879 5881 5883 5885 5884 5881 5880 5880 5879 5877 5877 5875 5875 5874 5872 5871 5870 5869 5868 5867 5866 5865 5864 5863 5862 5861 5860 5859 5859 5858 5858 5858 5858 5858 5858 5858 5859 5859 5859 5860 5860 5860 5861 5862 5862 5863 5864
5875 5876 5878 5880 5882 5883 5882 5880 5878 5879 5877 5876 5876 5874 5873 5872 5870 5870 5868 5867 5866 5865 5864 5863 5862 5861 5860 5859 5858 5857 5856 5856 5855 5855 5855 5855 5856 5856 5856 5857 5857 5858 5858 5858 5859 5859 5860 5860 5861
5874 5875 5877 5880 5881 5882 5881 5878 5878 5877 5875 5875 5874 5873 5871 5870 5868 5868 5866 5865 5864 5863 5862 5861 5860 5859 5858 5857 5856 5855 5854 5853 5853 5852 5853 5853 5853 5853 5854 5854 5854 5855 5855 5856 5856 5857 5857 5858 5858
5872 5874 5875 5878 5879 5880 5878 5877 5875 5875 5875 5874 5873 5872 5870 5869 5867 5866 5865 5864 5862 5861 5860 5859 5858 5857 5856 5855 5854 5853 5852 5851 5850 5850 5850 5850 5851 5851 5851 5851 5852 5852 5852 5853 5853 5854 5855 5855 5856
5871 5873 5874 5876 5877 5877 5875 5874 5873 5873 5873 5873 5872 5870 5869 5867 5866 5864 5863 5862 5860 5859 5859 5858 5857 5856 5855 5854 5852 5851 5850 5849 5848 5848 5848 5848 5848 5849 5849 5848 5849 5849 5849 5850 5850 5851 5851 5852 5853
5869 5870 5872 5874 5874 5874 5873 5871 5871 5871 5871 5870 5869 5868 5867 5865 5864 5863 5862 5860 5859 5858 5857 5856 5855 5854 5853 5851 5850 5848 5847 5846 5846 5846 5845 5845 5846 5846 5846 5845 5846 5846 5846 5846 5847 5847 5848 5849 5849
5867 5869 5870 5871 5870 5870 5870 5869 5869 5869 5869 5868 5867 5865 5864 5863 5862 5861 5860 5859 5858 5857 5856 5855 5854 5852 5850 5848 5847 5846 5844 5844 5843 5843 5843 5843 5842 5842 5842 5842 5842 5842 5842 5842 5843 5843 5844 5845 5845
5866 5867 5867 5868 5867 5867 5866 5867 5867 5867 5867 5866 5864 5863 5861 5861 5860 5859 5858 5857 5856 5855 5854 5853 5851 5850 5848 5846 5845 5844 5842 5842 5841 5841 5840 5840 5839 5839 5839 5839 5839 5839 5838 5839 5839 5839 5840 5841 5841
5864 5865 5864 5865 5864 5863 5864 5864 5865 5865 5864 5863 5862 5861 5859 5858 5858 5857 5856 5855 5854 5853 5852 5851 5849 5848 5846 5845 5843 5842 5841 5840 5839 5838 5838 5837 5836 5836 5835 5835 5835 5835 5835 5834 5834 5835 5835 5836 5837
5861 5862 5862 5862 5862 5862 5862 5862 5863 5862 5862 5860 5860 5859 5857 5856 5855 5855 5854 5853 5853 5852 5850 5849 5847 5845 5844 5843 5841 5840 5839 5838 5837 5836 5835 5834 5833 5833 5832 5831 5831 5831 5831 5830 5830 5830 5831 5832 5832
5859 5860 5860 5861 5861 5861 5861 5861 5861 5860 5859 5859 5857 5855 5855 5855 5854 5853 5852 5851 5850 5849 5848 5847 5845 5844 5842 5841 5839 5838 5837 5835 5834 5833 5832 5831 5830 5829 5828 5828 5827 5826 5826 5826 5826 5826 5826 5827 5828
5856 5857 5859 5859 5859 5859 5861 5859 5859 5859 5857 5856 5855 5853 5853 5852 5852 5851 5850 5849 5848 5847 5846 5845 5844 5842 5840 5838 5837 5835 5834 5833 5832 5831 5829 5828 5827 5826 5825 5824 5823 5822 5822 5821 5821 5821 5822 5822 5822
5854 5855 5857 5858 5857 5857 5857 5856 5856 5856 5854 5853 5852 5852 5851 5850 5849 5848 5848 5847 5846 5845 5843 5842 5841 5839 5838 5836 5835 5833 5832 5830 5829 5828 5826 5825 5823 5822 5821 5820 5819 5818 5818 5817 5817 5817 5817 5817 5817
5854 5854 5855 5855 5855 5854 5854 5854 5854 5853 5851 5850 5850 5850 5849 5848 5847 5846 5845 5844 5843 5842 5841 5840 5839 5837 5835 5833 5832 5831 5829 5828 5826 5825 5823 5821 5820 5818 5817 5816 5815 5814 5813 5813 5812 5812 5811 5811 5811
5852 5853 5853 5854 5853 5854 5853 5853 5852 5851 5850 5848 5848 5848 5847 5845 5844 5843 5842 5841 5840 5839 5839 5837 5836 5834 5833 5831 5829 5828 5826 5824 5823 5821 5820 5818 5816 5815 5813 5812 5811 5810 5809 5808 5808 5807 5806 5806 5805
5850 5851 5852 5852 5852 5852 5851 5851 5850 5849 5849 5847 5847 5846 5845 5843 5842 5841 5839 5839 5838 5837 5836 5835 5833 5832 5830 5828 5826 5825 5823 5821 5820 5818 5816 5814 5813 5811 5809 5808 5806 5805 5804 5804 5803 5802 5801 5801 5800
5849 5850 5851 5850 5850 5850 5850 5849 5849 5848 5847 5846 5844 5844 5843 5841 5840 5838 5837 5836 5835 5834 5833 5832 5831 5829 5827 5825 5823 5822 5820 5818 5816 5815 5813 5811 5809 5807 5805 5804 5802 5801 5799 5798 5797 5797 5796 5796 5796
5846 5847 5848 5848 5848 5848 5849 5848 5846 5846 5845 5844 5843 5842 5841 5839 5838 5837 5835 5834 5833 5832 5830 5829 5828 5826 5824 5823 5821 5819 5817 5815 5813 5811 5809 5807 5805 5803 5801 5800 5798 5796 5795 5793 5792 5792 5792 5791 5791
5843 5844 5845 5845 5845 5846 5846 5846 5845 5843 5842 5841 5841 5840 5839 5837 5836 5835 5832 5831 5830 5829 5828 5827 5825 5823 5821 5819 5817 5815 5813 5811 5809 5807 5805 5803 5801 5799 5797 5795 5793 5792 5790 5789 5788 5787 5787 5786 5786
5841 5842 5842 5842 5842 5843 5843 5843 5842 5840 5839 5838 5838 5837 5836 5835 5834 5832 5830 5829 5827 5826 5824 5823 5822 5820 5818 5816 5813 5811 5809 5807 5805 5802 5800 5799 5797 5795 5793 5792 5789 5787 5786 5785 5784 5783 5783 5782 5781
5838 5839 5840 5840 5840 5840 5840 5839 5838 5837 5837 5836 5836 5835 5834 5833 5831 5830 5828 5826 5825 5823 5822 5820 5818 5816 5814 5812 5810 5807 5805 5803 5801 5799 5797 5795 5793 5791 5789 5788 5786 5784 5782 5781 5780 5779 5779 5778 5777
5834 5836 5837 5838 5838 5838 5838 5836 5835 5835 5835 5834 5833 5832 5831 5830 5829 5827 5825 5824 5822 5820 5819 5817 5815 5813 5810 5808 5806 5804 5801 5799 5797 5795 5793 5791 5789 5787 5785 5784 5782 5780 5779 5777 5776 5775 5774 5773 5772
5831 5832 5834 5835 5835 5836 5835 5834 5831 5832 5832 5831 5830 5829 5828 5827 5825 5824 5822 5821 5819 5817 5815 5814 5812 5809 5807 5804 5802 5800 5798 5795 5793 5791 5789 5787 5785 5783 5781 5779 5778 5776 5775 5773 5772 5771 5770 5769 5767
5828 5829 5830 5831 5831 5831 5831 5829 5828 5828 5827 5827 5826 5825 5824 5823 5821 5820 5819 5817 5815 5814 5812 5810 5808 5806 5803 5801 5798 5796 5794 5792 5789 5787 5785 5783 5780 5778 5776 5775 5774 5772 5771 5769 5768 5767 5766 5764 5763
5825 5825 5825 5826 5827 5828 5828 5828 5825 5823 5823 5823 5822 5821 5820 5819 5818 5816 5815 5814 5812 5810 5808 5806 5804 5802 5799 5797 5795 5792 5790 5787 5785 5783 5781 5778 5776 5774 5772 5771 5769 5768 5767 5765 5764 5762 5761 5760 5758
5820 5821 5822 5823 5823 5823 5823 5825 5821 5820 5820 5820 5819 5818 5817 5815 5814 5813 5811 5810 5808 5806 5804 5802 5801 5798 5796 5793 5790 5788 5786 5783 5781 5779 5776 5774 5772 5770 5769 5767 5765 5764 5762 5761 5759 5758 5756 5755 5754